Metropolis, IL

8:26 AM CDT on June 23, 2017 (GMT -0500)
Metropolis

Weather History for KM30 - November, 2012

Change the Weather History Date:

Monday, November 19, 2012

  Actual Average (KPAH) Record (KPAH)
Temperature  
Mean Temperature 48 °F -  
Max Temperature 64 °F 57 °F 78 °F (1985)
Min Temperature 33 °F 39 °F 18 °F (1951)
Degree Days  
Heating Degree Days 16    
Moisture  
Dew Point 37 °F    
Average Humidity 69    
Maximum Humidity 100    
Minimum Humidity 30    
Precipitation  
Precipitation 0.00 in - - ()
Sea Level Pressure  
Sea Level Pressure 30.25 in    
Wind  
Wind Speed 0 mph (SW)    
Max Wind Speed 6 mph    
Max Gust Speed -    
Visibility 10 miles    
Events      
Averages and records for this station are not official NWS values.
T = Trace of Precipitation, MM = Missing Value Source: NWS Daily Summary

Daily Weather History Graph

Daily Weather History Graph

Search for Another Location

Airport or City:

Trip Planner

Search our weather history database for the weather conditions in past years. The results will help you decide how hot, cold, wet, or windy it might be!

Date:

Astronomy

Nov. 19, 2012 Rise Set
Actual Time 6:38 AM CST 4:42 PM CST
Civil Twilight 6:10 AM CST 5:10 PM CST
Nautical Twilight 5:38 AM CST 5:41 PM CST
Astronomical Twilight 5:07 AM CST 6:12 PM CST
Moon 11:44 AM CST (11/19) 11:05 PM CST (11/19)
Length of Visible Light 10h 59m
Length of Day
10h 03m
Waxing Crescent, 41% of the Moon is Illuminated
Nov 19
Waxing Crescent
Nov 20
First Quarter
Nov 28
Full
Dec 6
Last Quarter
Dec 13
New

Hourly Weather History & Observations

Time (CST) Temp. Windchill Dew Point Humidity Pressure Visibility Wind Dir Wind Speed Gust Speed Precip Events Conditions
12:15 AM 34.5 °F - 34.5 °F 100% 30.33 in 10.0 mi Calm Calm - N/A   Clear
12:35 AM 34.7 °F - 34.7 °F 100% 30.32 in 10.0 mi Calm Calm - N/A   Clear
12:55 AM 33.8 °F - 33.8 °F 100% 30.32 in 10.0 mi Calm Calm - N/A   Clear
1:15 AM 33.8 °F - 33.8 °F 100% 30.32 in 10.0 mi Calm Calm - N/A   Clear
1:35 AM 33.8 °F - 33.8 °F 100% 30.32 in 10.0 mi Calm Calm - N/A   Clear
1:55 AM 34.7 °F - 34.7 °F 100% 30.31 in 10.0 mi Calm Calm - N/A   Clear
2:15 AM 35.2 °F - 35.2 °F 100% 30.31 in 10.0 mi Calm Calm - N/A   Clear
2:35 AM 33.8 °F - 33.8 °F 100% 30.31 in 10.0 mi Calm Calm - N/A   Clear
2:55 AM 34.3 °F - 34.3 °F 100% 30.30 in 10.0 mi Calm Calm - N/A   Clear
3:15 AM 34.5 °F - 34.5 °F 100% 30.31 in 10.0 mi Calm Calm - N/A   Clear
3:35 AM 35.6 °F - 35.6 °F 100% 30.30 in 10.0 mi Calm Calm - N/A   Clear
3:55 AM 34.7 °F - 34.7 °F 100% 30.30 in 10.0 mi Calm Calm - N/A   Clear
4:15 AM 34.7 °F - 34.7 °F 100% 30.31 in 10.0 mi Calm Calm - N/A   Clear
4:35 AM 34.5 °F - 34.5 °F 100% 30.30 in 10.0 mi Calm Calm - N/A   Clear
4:55 AM 34.9 °F - 34.9 °F 100% 30.31 in 10.0 mi Calm Calm - N/A   Clear
5:15 AM 34.0 °F - 34.0 °F 100% 30.31 in 10.0 mi Calm Calm - N/A   Clear
5:35 AM 34.3 °F - 34.3 °F 100% 30.30 in 10.0 mi Calm Calm - N/A   Clear
5:55 AM 35.2 °F - 35.2 °F 100% 30.30 in 10.0 mi Calm Calm - N/A   Clear
6:15 AM 33.8 °F - 33.8 °F 100% 30.30 in 10.0 mi Calm Calm - N/A   Clear
6:35 AM 34.7 °F - 34.7 °F 100% 30.30 in 10.0 mi Calm Calm - N/A   Clear
6:55 AM 34.7 °F - 34.7 °F 100% 30.31 in 10.0 mi Calm Calm - N/A   Clear
7:15 AM 34.7 °F - 34.7 °F 100% 30.31 in 10.0 mi Calm Calm - N/A   Clear
7:35 AM 36.0 °F - 36.0 °F 100% 30.31 in 10.0 mi Calm Calm - N/A   Clear
7:55 AM 38.3 °F - 38.3 °F 100% 30.32 in 10.0 mi Calm Calm - N/A   Clear
8:15 AM 38.7 °F - 38.7 °F 100% 30.32 in 10.0 mi Calm Calm - N/A   Clear
8:55 AM 46.0 °F 44.8 °F 41.4 °F 84% 30.32 in 10.0 mi ESE 3.5 mph - N/A   Clear
9:15 AM 49.6 °F - 40.1 °F 70% 30.32 in 10.0 mi Calm Calm - N/A   Clear
9:35 AM 51.6 °F - 39.7 °F 64% 30.32 in 10.0 mi Calm Calm - N/A   Clear
9:55 AM 54.1 °F - 38.5 °F 55% 30.32 in 10.0 mi SSW 3.5 mph - N/A   Clear
10:15 AM 56.1 °F - 39.4 °F 53% 30.31 in 10.0 mi Calm Calm - N/A   Clear
10:35 AM 57.0 °F - 39.6 °F 52% 30.31 in 10.0 mi Calm Calm - N/A   Clear
10:55 AM 58.1 °F - 38.8 °F 49% 30.30 in 10.0 mi WSW 3.5 mph - N/A   Clear
11:15 AM 60.1 °F - 37.2 °F 43% 30.29 in 10.0 mi Calm Calm - N/A   Clear
11:35 AM 59.9 °F - 35.8 °F 41% 30.29 in 10.0 mi WSW 4.6 mph - N/A   Clear
11:55 AM 62.8 °F - 35.6 °F 36% 30.27 in 10.0 mi WSW 3.5 mph - N/A   Clear
12:15 PM 62.6 °F - 34.3 °F 35% 30.26 in 10.0 mi Calm Calm - N/A   Clear
12:35 PM 62.8 °F - 35.1 °F 36% 30.25 in 10.0 mi Calm Calm - N/A   Clear
12:55 PM 63.5 °F - 34.7 °F 34% 30.24 in 10.0 mi South 3.5 mph - N/A   Clear
1:15 PM 63.5 °F - 34.0 °F 33% 30.24 in 10.0 mi Calm Calm - N/A   Clear
1:35 PM 63.9 °F - 33.3 °F 32% 30.23 in 10.0 mi Calm Calm - N/A   Scattered Clouds
1:55 PM 64.8 °F - 32.4 °F 30% 30.22 in 10.0 mi SSW 3.5 mph - N/A   Scattered Clouds
2:15 PM 64.0 °F - 33.8 °F 32% 30.22 in 10.0 mi West 3.5 mph - N/A   Scattered Clouds
2:35 PM 63.9 °F - 33.6 °F 32% 30.21 in 10.0 mi Calm Calm - N/A   Scattered Clouds
2:55 PM 63.0 °F - 35.4 °F 36% 30.20 in 10.0 mi West 5.8 mph - N/A   Mostly Cloudy
3:15 PM 62.1 °F - 36.5 °F 39% 30.20 in 10.0 mi West 5.8 mph - N/A   Mostly Cloudy
3:35 PM 61.9 °F - 37.2 °F 40% 30.20 in 10.0 mi Calm Calm - N/A   Overcast
3:55 PM 61.3 °F - 37.2 °F 41% 30.20 in 10.0 mi Calm Calm - N/A   Overcast
4:15 PM 60.8 °F - 37.0 °F 41% 30.20 in 10.0 mi Calm Calm - N/A   Overcast
4:35 PM 60.3 °F - 37.4 °F 43% 30.20 in 10.0 mi Calm Calm - N/A   Overcast
4:55 PM 59.4 °F - 37.8 °F 45% 30.20 in 10.0 mi West 3.5 mph - N/A   Overcast
5:15 PM 59.0 °F - 37.8 °F 45% 30.20 in 10.0 mi Calm Calm - N/A   Overcast
5:35 PM 59.0 °F - 37.6 °F 45% 30.21 in 10.0 mi Calm Calm - N/A   Overcast
5:55 PM 59.0 °F - 37.0 °F 44% 30.21 in 10.0 mi Calm Calm - N/A   Overcast
6:15 PM 57.0 °F - 38.7 °F 50% 30.20 in 10.0 mi Calm Calm - N/A   Overcast
6:35 PM 55.2 °F - 40.1 °F 57% 30.20 in 10.0 mi Calm Calm - N/A   Overcast
6:55 PM 55.0 °F - 41.0 °F 59% 30.19 in 10.0 mi Calm Calm - N/A   Overcast
7:15 PM 54.5 °F - 40.5 °F 59% 30.19 in 10.0 mi Calm Calm - N/A   Overcast
7:35 PM 54.0 °F - 40.5 °F 60% 30.19 in 10.0 mi Calm Calm - N/A   Overcast
7:55 PM 53.1 °F - 40.8 °F 63% 30.19 in 10.0 mi Calm Calm - N/A   Overcast
8:15 PM 53.2 °F - 40.8 °F 63% 30.20 in 10.0 mi Calm Calm - N/A   Overcast
8:55 PM 52.0 °F - 41.7 °F 68% 30.19 in 10.0 mi Calm Calm - N/A   Overcast
9:15 PM 51.4 °F - 41.0 °F 68% 30.18 in 10.0 mi Calm Calm - N/A   Overcast
9:35 PM 50.9 °F - 40.8 °F 68% 30.18 in 10.0 mi Calm Calm - N/A   Scattered Clouds
9:55 PM 50.9 °F - 39.6 °F 65% 30.17 in 10.0 mi Calm Calm - N/A   Mostly Cloudy
10:15 PM 50.7 °F - 39.9 °F 67% 30.17 in 10.0 mi Calm Calm - N/A   Overcast
10:35 PM 49.5 °F - 41.7 °F 75% 30.16 in 10.0 mi Calm Calm - N/A   Overcast
10:55 PM 49.6 °F - 40.8 °F 72% 30.16 in 10.0 mi Calm Calm - N/A   Mostly Cloudy
11:15 PM 49.5 °F - 41.7 °F 75% 30.16 in 10.0 mi Calm Calm - N/A   Overcast
11:35 PM 49.5 °F - 42.8 °F 78% 30.16 in 10.0 mi Calm Calm - N/A   Overcast
11:55 PM 50.0 °F - 43.2 °F 77% 30.16 in 10.0 mi Calm Calm - N/A   Overcast